Flag for Pakistan Weather past 2 weeks in Karachi, Sindh, Pakistan

Now
81 °F

Scattered clouds.


Feels Like: 86 °F
Forecast: 80 / 93 °F
Wind: 9 mph from Southwest

Location: Karachi Airport

Current Time: Apr 26, 2015 at 6:48:48 AM

Latest Report: Apr 26, 2015 at 6:25 AM


Visibility: 2 mi

Pressure: 29.71 "Hg

Humidity: 84%

Dew point: 75 °F

Location of KarachiLocation

Historic Weather in Karachi — Graph

°F

Karachi temperature yesterday

Maximum temperature yesterday: 97 °F (at 1:25 PM)
Minimum temperature yesterday: 79 °F (at 2:55 AM)
Average temperature yesterday: 86 °F

Past Weeks' High & Low Weather Summary

 TemperatureHumidityPressure
High104 °F (Apr 16, 12:25 PM)84% (Apr 25, 6:25 AM)30.11 "Hg (Apr 25, 6:25 AM)
Low75 °F (Apr 13, 6:25 AM)11% (Apr 15, 5:55 PM)29.62 "Hg (Apr 18, 3:55 PM)
Average88 °F46%29.79 "Hg
* Reported Apr 11 4:25 AM — Apr 26 4:55 AM, Karachi, Weather by CustomWeather, © 2015

Note: Actual official high and low records may vary slightly from our data, if they occured in-between our weather recording intervals... More about our weather records

Advertising

Karachi weather history for previous 24 hours

 ConditionsComfort  
Time TempWeatherWind HumidityBarometerVisibility
4:55 AM
Sun, Apr 26
81 °FPassing clouds.8 mph84%29.68 "Hg3 mi
4:25 AM81 °FPassing clouds.7 mph84%29.68 "Hg3 mi
3:55 AM81 °FPassing clouds.6 mph84%29.68 "Hg3 mi
3:25 AM81 °FPassing clouds.8 mph84%29.68 "Hg3 mi
2:55 AM81 °FPassing clouds.6 mph84%29.68 "Hg3 mi
1:55 AM81 °FPassing clouds.6 mph84%29.71 "Hg3 mi
1:25 AM81 °FPassing clouds.7 mph84%29.71 "Hg3 mi
12:55 AM81 °FPassing clouds.6 mph84%29.71 "Hg4 mi
12:25 AM82 °FClear.6 mph79%29.71 "Hg4 mi
11:55 PM
Sat, Apr 25
82 °FClear.8 mph79%29.71 "Hg4 mi
11:25 PM82 °FClear.7 mph79%29.71 "Hg4 mi
10:55 PM82 °FClear.9 mph74%29.71 "Hg4 mi
10:25 PM82 °FClear.7 mph74%29.71 "Hg4 mi
9:55 PM82 °FClear.7 mph74%29.71 "Hg4 mi
9:25 PM84 °FClear.9 mph70%29.68 "Hg4 mi
8:55 PM84 °FClear.12 mph70%29.68 "Hg4 mi
8:25 PM84 °FClear.12 mph70%29.68 "Hg4 mi
7:55 PM84 °FClear.9 mph70%29.68 "Hg4 mi
7:25 PM86 °FClear.7 mph62%29.65 "Hg4 mi
6:55 PM86 °FClear.9 mph62%29.65 "Hg4 mi
6:25 PM88 °FClear.14 mph59%29.62 "Hg4 mi
5:55 PM90 °FClear.14 mph55%29.62 "Hg4 mi
5:25 PM91 °FClear.15 mph52%29.62 "Hg4 mi
4:25 PM93 °FClear.14 mph47%29.62 "Hg4 mi
3:55 PM93 °FClear.14 mph47%29.62 "Hg4 mi
3:25 PM95 °FClear.7 mph44%29.62 "Hg4 mi
2:55 PM95 °FClear.7 mph41%29.65 "Hg4 mi
2:25 PM97 °FClear.7 mph39%29.65 "Hg4 mi
1:55 PM97 °FClear.7 mph39%29.68 "Hg4 mi
1:25 PM97 °FClear.9 mph42%29.68 "Hg4 mi
1:00 PM95 °FClear.7 mph47%29.71 "Hg4 mi
12:25 PM93 °FClear.7 mph47%29.71 "Hg4 mi
11:55 AM91 °FClear.9 mph52%29.74 "Hg4 mi
11:25 AM91 °FClear.7 mph52%29.74 "Hg4 mi
10:55 AM90 °FClear.7 mph55%29.74 "Hg4 mi
10:30 AM90 °FClear.8 mph55%29.74 "Hg4 mi
10:00 AM88 °FClear.7 mph59%29.74 "Hg4 mi
9:30 AM86 °FClear.7 mph62%29.74 "Hg4 mi
8:55 AM84 °FClear.10 mph66%29.74 "Hg3 mi
8:25 AM84 °FClear.10 mph66%29.74 "Hg3 mi
7:55 AM82 °FClear.7 mph70%29.74 "Hg3 mi
7:25 AM81 °FClear.9 mph79%29.71 "Hg3 mi
6:55 AM79 °FClear.7 mph84%29.71 "Hg3 mi
6:25 AM79 °FClear.6 mph84%29.71 "Hg3 mi
Weather by CustomWeather, © 2015

See weather overviewHow to use our weather pages